This is the latest recevied weather packets stored in our database for station/object KQ7A. If no packets are shown the sender has not sent any weather packets the latest 10 day(s).
| Time | Temp. | Humidity | Pressure | Rain* | Wind** | Luminosity | Snow |
|---|---|---|---|---|---|---|---|
| 1777421052 | 16.11° C | 33% | 1018.9 hPa | 0 mm | - | 482 W/m² | - |
| 1777420749 | 16.67° C | 30% | 1018.6 hPa | 0 mm | - | 470 W/m² | - |
| 1777420445 | 16.67° C | 36% | 1018.9 hPa | 0 mm | - | 467 W/m² | - |
| 1777420142 | 16.67° C | 31% | 1018.9 hPa | 0 mm | - | 467 W/m² | - |
| 1777419837 | 15.56° C | 34% | 1018.8 hPa | 0 mm | - | 477 W/m² | - |
| 1777419535 | 15° C | 33% | 1018.8 hPa | 0 mm | - | 229 W/m² | - |
| 1777419234 | 15.56° C | 32% | 1018.6 hPa | 0 mm | - | 200 W/m² | - |
| 1777418931 | 15° C | 34% | 1018.6 hPa | 0 mm | - | 485 W/m² | - |
| 1777418626 | 15.56° C | 30% | 1018.6 hPa | 0 mm | - | 304 W/m² | - |
| 1777418322 | 16.11° C | 31% | 1018.5 hPa | 0 mm | - | 117 W/m² | - |
| 1777418019 | 15.56° C | 31% | 1018.5 hPa | 0 mm | - | 466 W/m² | - |
| 1777417714 | 15.56° C | 34% | 1019 hPa | 0 mm | - | 452 W/m² | - |
| 1777417410 | 15° C | 33% | 1018.9 hPa | 0 mm | - | 483 W/m² | - |
| 1777417107 | 15° C | 33% | 1019.1 hPa | 0 mm | - | 425 W/m² | - |
| 1777416802 | 14.44° C | 37% | 1018.8 hPa | 0 mm | - | 439 W/m² | - |
| 1777416498 | 14.44° C | 33% | 1018.8 hPa | 0 mm | - | 199 W/m² | - |
| 1777416194 | 15° C | 33% | 1018.9 hPa | 0 mm | - | 349 W/m² | - |
| 1777415888 | 15.56° C | 32% | 1018.9 hPa | 0 mm | - | 597 W/m² | - |
| 1777415584 | 15.56° C | 35% | 1019 hPa | 0 mm | - | 571 W/m² | - |
| 1777415280 | 15° C | 33% | 1018.9 hPa | 0 mm | - | 561 W/m² | - |
| 1777414974 | 13.89° C | 40% | 1018.9 hPa | 0 mm | - | 391 W/m² | - |
| 1777414668 | 13.89° C | 39% | 1019.3 hPa | 0 mm | - | 482 W/m² | - |
| 1777414364 | 13.89° C | 38% | 1019.1 hPa | 0 mm | - | 158 W/m² | - |
| 1777414058 | 14.44° C | 40% | 1019.4 hPa | 0 mm | - | 153 W/m² | - |
| 1777413753 | 15° C | 37% | 1019.3 hPa | 0 mm | - | 585 W/m² | - |
* Rain latest hour (hover to see other rain measurements)
** Current wind speed in m/s (hover to see current wind gust speed)